[[[{"header":{"parameterUnit":"kt","parameterCategory":2,"dx":1,"dy":1,"la1":30.253999710083008,"la2":30.299108505249023,"lo1":-89.0895004272461,"lo2":-89.04439544677734,"nx":28,"ny":28,"refTime":"2022-09-30T21:00:00:Z","depth":"0","parameterNumber":2,"parameterNumberName":"U-component_of_CURRENTS"},"data":[0.2167,0.2221,0.228,0.2367,0.2448,0.2513,0.2586,0.2731,0.2983,0.3345,0.3694,0.401,0.4697,0.5257,0.5381,0.5223,0.475,0.4647,0.4497,0.4806,0.4791,0.4775,0.4711,0.492,0.492,0.3902,0.3895,0.389,0.2199,0.2261,0.2353,0.2465,0.2537,0.2625,0.2802,0.288,0.3075,0.3451,0.3714,0.4228,0.4538,0.485,0.5205,0.5136,0.4768,0.5036,0.4609,0.4456,0.487,0.4816,0.5051,0.5051,0.5051,0.5051,0.5051,0.5051,0.226,0.2301,0.2397,0.25,0.2603,0.2706,0.2776,0.2984,0.3173,0.3494,0.3762,0.4071,0.452,0.492,0.4949,0.5085,0.4871,0.4972,0.491,0.4658,0.4455,0.4859,0.5152,0.5152,0.5153,0.5153,0.5153,0,0.2306,0.2357,0.243,0.2543,0.2639,0.2744,0.2912,0.3008,0.3281,0.347,0.3782,0.3981,0.4432,0.4631,0.4907,0.4956,0.4645,0.4873,0.4834,0.4535,0.4252,0.4103,0.4408,0.4659,0.4657,0.4655,0.4654,0.4653,0.2348,0.2383,0.2528,0.2584,0.265,0.2769,0.2862,0.3042,0.3184,0.3537,0.3655,0.3973,0.4193,0.4531,0.4645,0.4799,0.4582,0.481,0.4612,0.4575,0.4527,0.4263,0.4108,0.4627,0.463,0.4633,0.4635,0,0.2373,0.2449,0.2531,0.2671,0.2717,0.279,0.2968,0.3067,0.3237,0.3444,0.3512,0.3744,0.4005,0.4108,0.428,0.4273,0.4344,0.4469,0.4402,0.4431,0.4505,0.4438,0.4431,0.4279,0.4679,0.4684,0.4688,0,0.2438,0.2483,0.2608,0.2646,0.2738,0.2845,0.2964,0.307,0.3231,0.3382,0.3473,0.3621,0.3694,0.386,0.3879,0.4086,0.4071,0.4093,0.4135,0.4058,0.4061,0.4055,0.3984,0.3988,0.3986,0.3984,0.3982,0,0.2468,0.2567,0.2628,0.2666,0.2808,0.286,0.2941,0.3083,0.3172,0.3333,0.3429,0.3521,0.3618,0.3677,0.3781,0.3695,0.3977,0.3868,0.4033,0.4042,0.4036,0.4041,0.4191,0.398,0.3979,0.3978,0.3978,0,0.253,0.2589,0.2653,0.2782,0.2811,0.2855,0.2998,0.3062,0.3196,0.3256,0.3331,0.3382,0.347,0.3412,0.357,0.3508,0.3564,0.3607,0.3618,0.373,0.3714,0.3878,0.4038,0.4003,0.3729,0.3726,0.3723,0,0.2559,0.2622,0.2685,0.2747,0.2797,0.288,0.2939,0.3016,0.3089,0.3177,0.3206,0.328,0.3228,0.3274,0.3312,0.3393,0.3459,0.334,0.3539,0.3545,0.3661,0.3808,0.376,0.3987,0.3688,0.3692,0.3695,0,0.2581,0.2695,0.2698,0.2747,0.283,0.2867,0.292,0.3,0.3065,0.3085,0.3167,0.3172,0.3202,0.321,0.3219,0.3269,0.3403,0.3275,0.3278,0.3385,0.3617,0.3743,0.378,0.3412,0.3416,0.3418,0.3667,0,0.2672,0.271,0.2722,0.2786,0.2827,0.2859,0.2924,0.296,0.2992,0.3031,0.3088,0.3094,0.3134,0.3131,0.3125,0.3204,0.3232,0.3207,0.3195,0.3247,0.3348,0.337,0.3094,0.3093,0.3092,0.3091,0,0,0.268,0.2722,0.2773,0.2803,0.2839,0.289,0.2918,0.2948,0.2988,0.3021,0.3006,0.3058,0.305,0.31,0.3108,0.31,0.3163,0.3096,0.3204,0.3217,0.3228,0.3328,0.335,0.309,0.3089,0.3089,0.3089,0,0.2713,0.2754,0.2769,0.2808,0.2862,0.2894,0.2906,0.2953,0.2975,0.2999,0.301,0.3031,0.3034,0.3052,0.3058,0.3087,0.3122,0.3086,0.3116,0.3195,0.3208,0.322,0.332,0.3341,0.3087,0.3087,0.3087,0,0.2743,0.2781,0.2792,0.2848,0.2877,0.2908,0.2926,0.2954,0.2978,0.2974,0.2995,0.3004,0.3005,0.3023,0.3027,0.3014,0.3097,0.303,0.3034,0.3036,0.3116,0.3131,0.3144,0.298,0.298,0.2979,0,0,0.2764,0.2788,0.2844,0.2857,0.288,0.2918,0.2934,0.2953,0.2974,0.298,0.2985,0.2987,0.2999,0.3,0.3001,0.301,0.3049,0.3019,0.3024,0.3028,0.3033,0.3113,0.3126,0.2979,0.2979,0.2979,0,0,0.2766,0.2829,0.2848,0.2869,0.2905,0.2943,0.2951,0.297,0.2982,0.2981,0.2981,0.298,0.2995,0.2982,0.2975,0.2996,0.2973,0.2974,0.3012,0.3017,0.3022,0.3029,0.2958,0,0,0,0,0,0.282,0.2825,0.2842,0.2852,0.2903,0.2939,0.2945,0.2966,0.2971,0.2978,0.2985,0.2972,0.298,0.2974,0.2973,0.299,0.297,0.2972,0.2973,0.3024,0.303,0.3036,0,0,0,0,0,0,0.2824,0.2836,0.2842,0.2881,0.2893,0.2938,0.2943,0.2948,0.297,0.2971,0.2973,0.2972,0.2967,0.2974,0.2973,0.2989,0.2959,0.2971,0.2972,0.2973,0.3026,0.3031,0.3036,0,0,0,0,0,0.2827,0.2837,0.2914,0.2881,0.2891,0.2924,0.2942,0.2947,0.2962,0.2964,0.2964,0.2978,0.2967,0.2966,0.2973,0.2991,0.2959,0.2959,0.2972,0.2973,0.2974,0.3029,0,0,0,0,0,0,0.283,0.2835,0.2916,0.292,0.2879,0.2922,0.2929,0.2946,0.2952,0.2955,0.2967,0.2968,0.2967,0.2966,0.2965,0.2992,0.296,0.296,0.2959,0.2973,0.2973,0.2974,0,0,0,0,0,0,0.283,0.2838,0.2918,0.2915,0.2918,0.292,0.2926,0.2922,0.295,0.2954,0.2956,0.2967,0.2958,0.2966,0.2965,0.2959,0.296,0.296,0.296,0.296,0.2973,0.2974,0,0,0,0,0,0,0.2834,0.284,0.2913,0.2916,0.2919,0.2962,0.2914,0.2957,0.2976,0.2951,0.2976,0.2976,0.2957,0.2957,0.2966,0.296,0.2959,0.296,0.296,0.296,0.296,0,0,0,0,0,0,0,0.2837,0.2789,0.2897,0.2917,0.292,0.2957,0.2958,0.2959,0.2976,0.2976,0.2976,0.2976,0.2963,0.2962,0.2962,0.2961,0,0,0.296,0.296,0,0,0,0,0,0,0,0,0.2787,0.2788,0.2898,0.2899,0.29,0.2957,0.2958,0.2959,0.2976,0.2976,0.2976,0.2976,0.2963,0.2962,0.2962,0,0,0,0,0,0,0,0,0,0,0,0,0,0,0,0.2898,0.2899,0,0.2958,0.2958,0.2958,0.2976,0.2976,0.2976,0.2976,0.2963,0.2962,0.2962,0,0,0,0,0,0,0,0,0,0,0,0,0,0,0,0,0,0,0,0,0,0,0,0,0,0,0,0,0,0,0,0,0,0,0,0,0,0,0,0,0,0,0,0,0,0,0,0,0,0,0,0,0,0,0,0,0,0,0,0,0,0,0,0,0,0,0,0,0]}],[{"header":{"parameterUnit":"kt","parameterCategory":2,"dx":1,"dy":1,"la1":30.253999710083008,"la2":30.299108505249023,"lo1":-89.0895004272461,"lo2":-89.04439544677734,"nx":28,"ny":28,"refTime":"2022-09-30T21:00:00:Z","depth":"0","parameterNumber":3,"parameterNumberName":"V-component_of_CURRENTS"},"data":[0.0282,0.0409,0.0473,0.0763,0.089,0.1179,0.1362,0.1649,0.1836,0.209,0.2125,0.2061,0.1405,-0.075,-0.2287,-0.267,-0.3162,-0.3263,-0.3531,-0.3111,-0.3076,-0.3041,-0.3014,-0.3398,-0.34,-0.4176,-0.4184,-0.419,0.0227,0.0295,0.038,0.0531,0.0682,0.0685,0.0911,0.1114,0.1427,0.1545,0.1682,0.1417,0.0669,-0.0173,-0.1313,-0.1972,-0.2268,-0.239,-0.2642,-0.272,-0.2002,-0.1928,-0.2087,-0.2087,-0.2087,-0.2087,-0.2086,-0.2086,0.014,0.0184,0.0254,0.0349,0.0421,0.0574,0.0708,0.0831,0.0988,0.1194,0.1086,0.1155,0.053,-0.0208,-0.0681,-0.1552,-0.1592,-0.1829,-0.2007,-0.2129,-0.2191,-0.1297,-0.1421,-0.1422,-0.1423,-0.1423,-0.1423,0,0.0101,0.0107,0.0143,0.0233,0.0282,0.0344,0.0418,0.0487,0.051,0.0567,0.0681,0.0651,0.0223,-0.012,-0.0689,-0.0993,-0.1669,-0.1453,-0.1808,-0.1943,-0.2057,-0.2214,-0.1386,-0.1505,-0.1506,-0.1507,-0.1507,-0.1508,0.0051,0.0077,0.0108,0.0147,0.0153,0.0177,0.0212,0.0172,0.0227,0.0212,0.027,0.0076,0.0059,-0.0424,-0.0822,-0.1227,-0.152,-0.147,-0.1467,-0.1748,-0.1969,-0.2101,-0.2192,-0.1519,-0.1518,-0.1517,-0.1516,0,0.0023,0.003,0.0067,0.0074,0.0082,0.0099,0.0102,0.0113,0.0054,0.0081,0.0057,-0.01,-0.0284,-0.0586,-0.0935,-0.112,-0.1536,-0.1447,-0.1347,-0.139,-0.1745,-0.1896,-0.2297,-0.2427,-0.1625,-0.1625,-0.1624,0,-0.0027,0.0,0.0002,0.0019,0.0054,0.0023,0.003,-0.0007,-0.0064,-0.0036,-0.021,-0.0216,-0.0533,-0.07,-0.0921,-0.1148,-0.1207,-0.133,-0.1393,-0.1341,-0.1329,-0.1675,-0.1835,-0.1459,-0.1457,-0.1455,-0.1454,0,-0.0102,-0.0064,-0.0026,-0.0025,-0.0036,-0.0033,-0.0045,-0.0113,-0.0126,-0.0238,-0.0265,-0.0431,-0.051,-0.0721,-0.0922,-0.0933,-0.1194,-0.1262,-0.1344,-0.1343,-0.1387,-0.1383,-0.1733,-0.1451,-0.1451,-0.145,-0.1449,0,-0.0164,-0.0147,-0.0091,-0.0102,-0.0102,-0.0088,-0.0135,-0.0139,-0.0233,-0.0285,-0.0371,-0.0475,-0.058,-0.0631,-0.0877,-0.0805,-0.0966,-0.1086,-0.1101,-0.1072,-0.1132,-0.1284,-0.1296,-0.1614,-0.1284,-0.1282,-0.128,0,-0.0252,-0.0197,-0.0222,-0.018,-0.0167,-0.0231,-0.0227,-0.0269,-0.0332,-0.039,-0.049,-0.0558,-0.0603,-0.0653,-0.0722,-0.0883,-0.0967,-0.0855,-0.1176,-0.1186,-0.1106,-0.1102,-0.1053,-0.1262,-0.125,-0.1253,-0.1255,0,-0.0333,-0.0342,-0.0338,-0.0339,-0.0366,-0.0366,-0.0359,-0.0392,-0.0413,-0.0469,-0.051,-0.0579,-0.0654,-0.0697,-0.077,-0.0836,-0.0927,-0.0904,-0.0912,-0.1001,-0.1161,-0.1075,-0.1088,-0.0976,-0.0978,-0.098,-0.1232,0,-0.0445,-0.0432,-0.0409,-0.0419,-0.0427,-0.041,-0.0461,-0.0478,-0.0525,-0.0572,-0.063,-0.0718,-0.0794,-0.081,-0.0852,-0.0898,-0.0952,-0.0989,-0.1029,-0.1006,-0.1122,-0.114,-0.0962,-0.0964,-0.0966,-0.0967,0,0,-0.054,-0.0517,-0.0568,-0.0546,-0.0553,-0.0625,-0.0596,-0.0623,-0.0672,-0.0698,-0.0725,-0.0842,-0.0896,-0.0939,-0.0924,-0.0958,-0.1035,-0.0947,-0.1007,-0.101,-0.1014,-0.1122,-0.1137,-0.0971,-0.0971,-0.0972,-0.0972,0,-0.0588,-0.0612,-0.058,-0.0598,-0.0626,-0.0659,-0.0653,-0.0697,-0.0722,-0.0741,-0.0819,-0.0869,-0.0924,-0.0977,-0.101,-0.098,-0.1074,-0.0989,-0.0917,-0.1018,-0.1019,-0.1021,-0.1127,-0.1139,-0.0977,-0.0977,-0.0976,0,-0.0673,-0.0692,-0.0684,-0.07,-0.0726,-0.0717,-0.0783,-0.078,-0.0776,-0.0876,-0.0886,-0.095,-0.1022,-0.1039,-0.1052,-0.1069,-0.1118,-0.1074,-0.1066,-0.1063,-0.1171,-0.1171,-0.1171,-0.1171,-0.1171,-0.1171,0,0,-0.0711,-0.0701,-0.0741,-0.0713,-0.0723,-0.0775,-0.0784,-0.0812,-0.0851,-0.087,-0.0922,-0.0978,-0.1024,-0.1042,-0.1089,-0.1096,-0.1176,-0.1092,-0.1083,-0.1075,-0.1067,-0.1172,-0.1172,-0.1172,-0.1172,-0.1172,0,0,-0.0728,-0.0763,-0.0794,-0.0761,-0.0786,-0.0831,-0.0821,-0.0857,-0.0896,-0.0905,-0.098,-0.0996,-0.102,-0.1062,-0.1062,-0.109,-0.1135,-0.1136,-0.1045,-0.1034,-0.1026,-0.1004,-0.1119,0,0,0,0,0,-0.08,-0.0758,-0.0786,-0.0787,-0.0814,-0.082,-0.0827,-0.0869,-0.0899,-0.089,-0.0949,-0.0987,-0.1079,-0.1081,-0.1093,-0.1071,-0.1179,-0.1178,-0.1176,-0.1063,-0.1051,-0.1041,0,0,0,0,0,0,-0.08,-0.08,-0.0787,-0.0826,-0.0833,-0.0821,-0.0877,-0.0889,-0.0901,-0.0907,-0.0976,-0.099,-0.104,-0.1078,-0.1088,-0.1066,-0.1116,-0.1178,-0.1177,-0.1176,-0.1059,-0.1049,-0.1041,0,0,0,0,0,-0.0801,-0.0801,-0.0826,-0.0829,-0.0835,-0.0884,-0.0878,-0.0888,-0.0902,-0.097,-0.0984,-0.0931,-0.1038,-0.1051,-0.1084,-0.1059,-0.1109,-0.1113,-0.1178,-0.1177,-0.1176,-0.1054,0,0,0,0,0,0,-0.0802,-0.0822,-0.083,-0.0834,-0.0835,-0.0886,-0.0893,-0.0887,-0.0966,-0.0977,-0.0928,-0.0933,-0.1037,-0.1047,-0.1056,-0.1053,-0.1103,-0.1107,-0.1109,-0.1177,-0.1176,-0.1176,0,0,0,0,0,0,-0.0823,-0.0826,-0.0832,-0.0838,-0.0843,-0.0887,-0.0893,-0.0927,-0.0967,-0.0921,-0.0926,-0.0929,-0.1027,-0.1044,-0.1051,-0.1102,-0.1099,-0.1103,-0.1105,-0.1107,-0.1176,-0.1176,0,0,0,0,0,0,-0.0825,-0.0828,-0.0837,-0.0841,-0.0847,-0.0904,-0.092,-0.095,-0.0954,-0.0918,-0.0957,-0.0958,-0.1023,-0.1032,-0.1048,-0.1095,-0.1101,-0.1099,-0.1102,-0.1104,-0.1105,0,0,0,0,0,0,0,-0.0828,-0.0792,-0.0798,-0.0845,-0.0849,-0.0875,-0.0877,-0.0879,-0.0954,-0.0956,-0.0957,-0.0958,-0.1079,-0.1083,-0.1087,-0.1089,0,0,-0.1099,-0.1101,0,0,0,0,0,0,0,0,-0.0792,-0.0792,-0.0798,-0.0799,-0.08,-0.0876,-0.0877,-0.0878,-0.0955,-0.0955,-0.0956,-0.0957,-0.108,-0.1083,-0.1087,0,0,0,0,0,0,0,0,0,0,0,0,0,0,0,-0.0798,-0.0799,0,-0.0876,-0.0877,-0.0878,-0.0955,-0.0955,-0.0956,-0.0957,-0.1081,-0.1084,-0.1086,0,0,0,0,0,0,0,0,0,0,0,0,0,0,0,0,0,0,0,0,0,0,0,0,0,0,0,0,0,0,0,0,0,0,0,0,0,0,0,0,0,0,0,0,0,0,0,0,0,0,0,0,0,0,0,0,0,0,0,0,0,0,0,0,0,0,0,0,0]}]],[[{"header":{"parameterUnit":"kt","parameterCategory":2,"dx":1,"dy":1,"la1":30.253999710083008,"la2":30.299108505249023,"lo1":-89.0895004272461,"lo2":-89.04439544677734,"nx":28,"ny":28,"refTime":"2022-09-30T21:00:00:Z","depth":"2","parameterNumber":2,"parameterNumberName":"U-component_of_CURRENTS"},"data":[0.2087,0.2141,0.2199,0.2294,0.2379,0.2452,0.2525,0.2602,0.2777,0.2856,0.2968,0.3331,0.3542,0.3181,0.3199,0.3067,0.3093,0.2967,0.3875,0.358,0.3598,0.367,0.3457,0,0,0,0,0,0.2117,0.2179,0.2269,0.2386,0.2459,0.2543,0.2717,0.2773,0.2935,0.3223,0.3427,0.332,0.3446,0.3601,0.3576,0.3639,0.3472,0.3484,0.3203,0.3236,0.3262,0.309,0.2959,0.2954,0.295,0.2945,0,0,0.2174,0.2216,0.2312,0.2413,0.2515,0.2616,0.2694,0.2878,0.3058,0.3339,0.359,0.3773,0.3945,0.4111,0.4074,0.4064,0.4302,0.4071,0.4067,0.4069,0.3955,0.3903,0.4044,0.4048,0.4051,0.4054,0.4056,0,0.2214,0.2267,0.234,0.2451,0.2547,0.2655,0.2823,0.2923,0.3195,0.3374,0.3664,0.3835,0.4197,0.4219,0.4419,0.4412,0.4241,0.4249,0.4549,0.3721,0.3659,0.3657,0.3648,0.3773,0.3775,0.3777,0.3778,0.3779,0.2253,0.2288,0.2434,0.2488,0.2555,0.2679,0.2773,0.2962,0.3102,0.3458,0.357,0.3873,0.4054,0.4352,0.4402,0.4518,0.4469,0.429,0.4053,0.4234,0.424,0.4212,0.4187,0.3803,0.38,0.3797,0.3795,0,0.2276,0.235,0.2431,0.2571,0.2617,0.2694,0.2879,0.2982,0.3158,0.3368,0.3437,0.3668,0.3907,0.4001,0.4176,0.4144,0.4262,0.4301,0.3992,0.3986,0.4179,0.4158,0.4437,0.4441,0.4445,0.4448,0.445,0,0.2335,0.2381,0.2504,0.2542,0.2637,0.2741,0.2867,0.2972,0.3143,0.3295,0.3388,0.3535,0.3613,0.3774,0.3795,0.3964,0.3989,0.3945,0.398,0.3697,0.3678,0.3762,0.3741,0.3916,0.3914,0.3912,0.391,0,0.2364,0.246,0.252,0.2557,0.2697,0.2749,0.2831,0.2975,0.3068,0.3236,0.3337,0.3432,0.3533,0.3596,0.3692,0.3613,0.3892,0.3793,0.389,0.3895,0.3682,0.3663,0.3907,0.3907,0.3907,0.3906,0.3905,0,0.2421,0.2479,0.2541,0.2668,0.2696,0.2741,0.2885,0.295,0.3088,0.3153,0.3229,0.3283,0.3373,0.3312,0.3475,0.341,0.347,0.3515,0.3526,0.3564,0.3543,0.35,0.3595,0.3651,0.3648,0.3645,0.3642,0,0.2448,0.251,0.2569,0.2632,0.268,0.2759,0.2819,0.2897,0.2973,0.3067,0.3093,0.3173,0.3115,0.3166,0.3203,0.329,0.3358,0.3232,0.3445,0.3452,0.3497,0.363,0.3337,0.3554,0.3605,0.3609,0.3612,0,0.2468,0.2578,0.2582,0.263,0.271,0.2745,0.2798,0.2876,0.2946,0.2967,0.3053,0.3057,0.3089,0.3098,0.3107,0.3157,0.3299,0.3166,0.3169,0.3285,0.3525,0.3573,0.3604,0.3307,0.3311,0.3313,0.3582,0,0.2553,0.2593,0.2603,0.2667,0.2705,0.2736,0.2799,0.2837,0.2872,0.2912,0.2972,0.2979,0.3021,0.3017,0.3012,0.3093,0.3125,0.3097,0.3085,0.3139,0.3249,0.3272,0.2981,0.298,0.2979,0.2978,0,0,0.2561,0.2602,0.2652,0.268,0.2713,0.2764,0.2792,0.2822,0.2864,0.2896,0.2886,0.2941,0.2934,0.2983,0.2993,0.2985,0.3054,0.2983,0.3095,0.3107,0.3119,0.3227,0.3251,0.2977,0.2977,0.2976,0.2976,0,0.259,0.2633,0.2647,0.2684,0.2736,0.2766,0.2779,0.2824,0.2847,0.2876,0.2888,0.2911,0.2919,0.2935,0.2942,0.2973,0.3012,0.2974,0.3004,0.3085,0.3099,0.3111,0.322,0.3241,0.2974,0.2974,0.2974,0,0.2617,0.2653,0.2665,0.272,0.2747,0.2776,0.2793,0.2821,0.2846,0.2844,0.287,0.2881,0.2884,0.2904,0.291,0.2897,0.2985,0.2915,0.2919,0.2922,0.3004,0.3019,0.3033,0.2864,0.2864,0.2864,0,0,0.2635,0.2661,0.2713,0.2727,0.2748,0.2784,0.2799,0.282,0.2841,0.285,0.2857,0.2863,0.2876,0.2879,0.2883,0.2894,0.2936,0.2904,0.2909,0.2913,0.2918,0.3001,0.3015,0.2863,0.2863,0.2863,0,0,0.2636,0.2694,0.2716,0.2738,0.2772,0.2804,0.2812,0.2832,0.2849,0.2851,0.2852,0.2853,0.2872,0.286,0.2852,0.2878,0.2854,0.2855,0.2892,0.2898,0.2903,0.291,0.2836,0,0,0,0,0,0.2683,0.2689,0.2709,0.2719,0.2768,0.2799,0.2805,0.2826,0.2834,0.2843,0.2854,0.2842,0.2858,0.2851,0.285,0.2869,0.2854,0.2856,0.2857,0.2907,0.2913,0.2919,0,0,0,0,0,0,0.2687,0.2698,0.2709,0.2742,0.2753,0.2798,0.2804,0.281,0.2833,0.2836,0.2842,0.2842,0.2838,0.2851,0.285,0.2868,0.2836,0.2855,0.2856,0.2857,0.2909,0.2914,0.2919,0,0,0,0,0,0.269,0.2699,0.2775,0.2741,0.2751,0.2784,0.2804,0.2809,0.2828,0.2829,0.2831,0.2845,0.2838,0.2837,0.285,0.2869,0.2836,0.2836,0.2856,0.2857,0.2858,0.2912,0,0,0,0,0,0,0.2692,0.2698,0.2777,0.2781,0.2742,0.2782,0.279,0.2808,0.282,0.2823,0.283,0.2831,0.2838,0.2837,0.2837,0.2871,0.2837,0.2836,0.2836,0.2856,0.2857,0.2858,0,0,0,0,0,0,0.2694,0.2701,0.2779,0.2778,0.2782,0.278,0.2787,0.2784,0.2818,0.2819,0.2821,0.283,0.283,0.2837,0.2837,0.2832,0.2837,0.2837,0.2837,0.2837,0.2857,0.2858,0,0,0,0,0,0,0.2697,0.2703,0.2777,0.278,0.2783,0.2822,0.2776,0.2819,0.284,0.2817,0.284,0.2841,0.2829,0.2829,0.2837,0.2832,0.2832,0.2837,0.2837,0.2837,0.2837,0,0,0,0,0,0,0,0.27,0.2654,0.2759,0.2781,0.2784,0.2814,0.2815,0.2815,0.284,0.284,0.284,0.2841,0.2838,0.2838,0.2838,0.2832,0,0,0.2837,0.2837,0,0,0,0,0,0,0,0,0.2652,0.2653,0.2759,0.276,0.2761,0.2814,0.2814,0.2815,0.284,0.284,0.284,0.284,0.2838,0.2838,0.2838,0,0,0,0,0,0,0,0,0,0,0,0,0,0,0,0.2759,0.276,0,0.2814,0.2814,0.2815,0.284,0.284,0.284,0.284,0.2838,0.2838,0.2838,0,0,0,0,0,0,0,0,0,0,0,0,0,0,0,0,0,0,0,0,0,0,0,0,0,0,0,0,0,0,0,0,0,0,0,0,0,0,0,0,0,0,0,0,0,0,0,0,0,0,0,0,0,0,0,0,0,0,0,0,0,0,0,0,0,0,0,0,0]}],[{"header":{"parameterUnit":"kt","parameterCategory":2,"dx":1,"dy":1,"la1":30.253999710083008,"la2":30.299108505249023,"lo1":-89.0895004272461,"lo2":-89.04439544677734,"nx":28,"ny":28,"refTime":"2022-09-30T21:00:00:Z","depth":"2","parameterNumber":3,"parameterNumberName":"V-component_of_CURRENTS"},"data":[0.0549,0.0671,0.0731,0.0999,0.1118,0.1384,0.1555,0.1734,0.1842,0.1936,0.1891,0.1739,0.105,0.0523,-0.0114,-0.0548,-0.0711,-0.0642,-0.0599,-0.0568,-0.0571,-0.1061,-0.0892,0,0,0,0,0,0.0494,0.0559,0.065,0.0797,0.0942,0.0953,0.1177,0.1328,0.158,0.1634,0.1705,0.1303,0.0865,0.0308,-0.0443,-0.0887,-0.0982,-0.1036,-0.1068,-0.1076,-0.1084,-0.0974,-0.0999,-0.1,-0.1001,-0.1002,0,0,0.0406,0.0455,0.0524,0.0622,0.0703,0.0856,0.0987,0.1095,0.124,0.1382,0.1298,0.1257,0.0775,0.0143,-0.0327,-0.0856,-0.0872,-0.1077,-0.1082,-0.1089,-0.0977,-0.0909,-0.1002,-0.1003,-0.1003,-0.1004,-0.1004,0,0.0359,0.0363,0.0408,0.0503,0.0561,0.0636,0.0717,0.0791,0.0818,0.0864,0.0959,0.0913,0.0505,0.015,-0.0378,-0.0647,-0.1013,-0.1055,-0.112,-0.1057,-0.0995,-0.1033,-0.1026,-0.1121,-0.1122,-0.1123,-0.1124,-0.1124,0.0295,0.0325,0.0365,0.0409,0.0417,0.0455,0.0499,0.0471,0.0532,0.0523,0.0584,0.0401,0.0364,-0.0089,-0.0474,-0.0869,-0.0936,-0.1077,-0.1093,-0.1098,-0.114,-0.1127,-0.1115,-0.1138,-0.1136,-0.1135,-0.1134,0,0.0261,0.0266,0.0313,0.0328,0.0339,0.0367,0.0384,0.0408,0.0352,0.039,0.0367,0.0216,0.0035,-0.026,-0.0593,-0.0777,-0.102,-0.1084,-0.0992,-0.1027,-0.1131,-0.1116,-0.125,-0.1248,-0.1247,-0.1246,-0.1245,0,0.0205,0.0236,0.0241,0.0261,0.0309,0.0278,0.0301,0.0269,0.0224,0.026,0.0084,0.0085,-0.0232,-0.0389,-0.0612,-0.0828,-0.0882,-0.1008,-0.1062,-0.1013,-0.1002,-0.1092,-0.1085,-0.1137,-0.1135,-0.1133,-0.1132,0,0.0135,0.0168,0.0209,0.021,0.0207,0.0212,0.0204,0.0145,0.0142,0.004,0.0022,-0.0143,-0.0218,-0.0425,-0.0628,-0.0647,-0.0881,-0.0955,-0.1022,-0.102,-0.1049,-0.1042,-0.113,-0.113,-0.1129,-0.1128,-0.1128,0,0.0069,0.0089,0.0139,0.0143,0.0144,0.0152,0.0121,0.0114,0.0029,-0.0018,-0.0101,-0.0199,-0.0311,-0.0367,-0.0607,-0.0542,-0.0695,-0.081,-0.0823,-0.0774,-0.0825,-0.0956,-0.0971,-0.099,-0.0987,-0.0985,-0.0984,0,0.0,0.0047,0.002,0.0057,0.0073,0.0013,0.0012,-0.0027,-0.0086,-0.0133,-0.0236,-0.0298,-0.036,-0.0403,-0.0476,-0.0626,-0.0707,-0.0608,-0.0882,-0.0891,-0.0802,-0.0804,-0.0756,-0.0942,-0.0958,-0.096,-0.0962,0,-0.0064,-0.0074,-0.0072,-0.0068,-0.0101,-0.01,-0.0107,-0.0138,-0.0151,-0.0219,-0.0248,-0.0337,-0.0402,-0.0445,-0.0518,-0.0582,-0.0672,-0.0643,-0.0649,-0.0728,-0.0875,-0.0783,-0.0793,-0.0711,-0.0713,-0.0715,-0.0942,0,-0.0146,-0.014,-0.0126,-0.014,-0.0152,-0.0142,-0.0191,-0.0212,-0.0257,-0.03,-0.036,-0.045,-0.0521,-0.0546,-0.0589,-0.0637,-0.0682,-0.0711,-0.0738,-0.0727,-0.0831,-0.0846,-0.0685,-0.0686,-0.0688,-0.0689,0,0,-0.0217,-0.0203,-0.0249,-0.0237,-0.0244,-0.0311,-0.029,-0.0321,-0.0374,-0.0395,-0.0426,-0.0541,-0.06,-0.0646,-0.0643,-0.0677,-0.0742,-0.0665,-0.0725,-0.0728,-0.0732,-0.0829,-0.0842,-0.0691,-0.0692,-0.0692,-0.0693,0,-0.0248,-0.0277,-0.0256,-0.0275,-0.0306,-0.0335,-0.0334,-0.0378,-0.0405,-0.0432,-0.0502,-0.0557,-0.0619,-0.067,-0.0704,-0.0692,-0.077,-0.0705,-0.0646,-0.0734,-0.0735,-0.0737,-0.0832,-0.0843,-0.0696,-0.0696,-0.0696,0,-0.031,-0.033,-0.0327,-0.0351,-0.0378,-0.0376,-0.0431,-0.0437,-0.044,-0.0528,-0.0551,-0.0613,-0.0682,-0.071,-0.0729,-0.074,-0.0801,-0.076,-0.0755,-0.0746,-0.0838,-0.0839,-0.084,-0.083,-0.083,-0.083,0,0,-0.0337,-0.0334,-0.0373,-0.0361,-0.0373,-0.0421,-0.0433,-0.046,-0.0501,-0.0521,-0.0574,-0.0631,-0.0679,-0.0701,-0.075,-0.0768,-0.0832,-0.0772,-0.0766,-0.076,-0.0748,-0.0838,-0.0839,-0.083,-0.083,-0.083,0,0,-0.0348,-0.0382,-0.0411,-0.0396,-0.0423,-0.0465,-0.0464,-0.0496,-0.054,-0.0549,-0.0619,-0.0636,-0.0672,-0.071,-0.0705,-0.0751,-0.0783,-0.0785,-0.0712,-0.0705,-0.0699,-0.0672,-0.0753,0,0,0,0,0,-0.0401,-0.0375,-0.0402,-0.0405,-0.0441,-0.0453,-0.046,-0.0504,-0.053,-0.0529,-0.0587,-0.0621,-0.0724,-0.072,-0.0733,-0.0723,-0.0831,-0.0831,-0.083,-0.0743,-0.0735,-0.0728,0,0,0,0,0,0,-0.0403,-0.0406,-0.0402,-0.0439,-0.0448,-0.0454,-0.05,-0.0512,-0.0531,-0.0538,-0.0609,-0.0623,-0.0669,-0.0717,-0.0727,-0.0717,-0.0749,-0.0831,-0.0831,-0.083,-0.074,-0.0734,-0.0728,0,0,0,0,0,-0.0404,-0.0407,-0.0449,-0.0441,-0.0449,-0.05,-0.0501,-0.0511,-0.0531,-0.0597,-0.0611,-0.0562,-0.0667,-0.068,-0.0723,-0.0711,-0.0742,-0.0746,-0.0831,-0.0831,-0.083,-0.0737,0,0,0,0,0,0,-0.0405,-0.0424,-0.0452,-0.0457,-0.0449,-0.0502,-0.051,-0.051,-0.0591,-0.0603,-0.0553,-0.0557,-0.0665,-0.0676,-0.0686,-0.0706,-0.0736,-0.074,-0.0743,-0.0831,-0.083,-0.083,0,0,0,0,0,0,-0.0423,-0.0428,-0.0454,-0.0461,-0.0468,-0.0502,-0.051,-0.0545,-0.0592,-0.0544,-0.0549,-0.0554,-0.0658,-0.0673,-0.0681,-0.0734,-0.0732,-0.0736,-0.0738,-0.074,-0.083,-0.083,0,0,0,0,0,0,-0.0426,-0.043,-0.0461,-0.0465,-0.0471,-0.0528,-0.0537,-0.0577,-0.0578,-0.0541,-0.0581,-0.0582,-0.0654,-0.0663,-0.0677,-0.0727,-0.0732,-0.0732,-0.0735,-0.0736,-0.0738,0,0,0,0,0,0,0,-0.0429,-0.0387,-0.0421,-0.0469,-0.0473,-0.0499,-0.0501,-0.0502,-0.0578,-0.0579,-0.058,-0.0582,-0.0711,-0.0715,-0.0719,-0.072,0,0,-0.0732,-0.0734,0,0,0,0,0,0,0,0,-0.0387,-0.0387,-0.0421,-0.0422,-0.0423,-0.0499,-0.05,-0.0502,-0.0578,-0.0579,-0.058,-0.0581,-0.0712,-0.0715,-0.0719,0,0,0,0,0,0,0,0,0,0,0,0,0,0,0,-0.0421,-0.0422,0,-0.0499,-0.05,-0.0502,-0.0578,-0.0579,-0.058,-0.0581,-0.0713,-0.0716,-0.0718,0,0,0,0,0,0,0,0,0,0,0,0,0,0,0,0,0,0,0,0,0,0,0,0,0,0,0,0,0,0,0,0,0,0,0,0,0,0,0,0,0,0,0,0,0,0,0,0,0,0,0,0,0,0,0,0,0,0,0,0,0,0,0,0,0,0,0,0,0]}]],[[{"header":{"parameterUnit":"kt","parameterCategory":2,"dx":1,"dy":1,"la1":30.253999710083008,"la2":30.299108505249023,"lo1":-89.0895004272461,"lo2":-89.04439544677734,"nx":28,"ny":28,"refTime":"2022-09-30T21:00:00:Z","depth":"4","parameterNumber":2,"parameterNumberName":"U-component_of_CURRENTS"},"data":[0.1003,0.1035,0.1072,0.1138,0.1207,0.1323,0.1439,0.159,0.1642,0.1881,0.1993,0.2168,0.2373,0.2476,0.2596,0.2636,0.254,0.2976,0.297,0.2894,0.2902,0.291,0.2814,0,0,0,0,0,0.1057,0.1072,0.1125,0.1227,0.1336,0.1425,0.1589,0.1695,0.1925,0.199,0.2153,0.2306,0.2495,0.2619,0.2638,0.2811,0.2882,0.2818,0.2739,0.2899,0.2908,0.2812,0,0,0,0,0,0,0.1154,0.1154,0.1241,0.1331,0.1443,0.1537,0.1628,0.1773,0.1913,0.2235,0.2279,0.2539,0.2742,0.2824,0.2904,0.2957,0.2882,0.2755,0.2771,0.2781,0.2683,0.261,0.2578,0,0,0,0,0,0.1252,0.1309,0.1359,0.1466,0.1557,0.1663,0.1802,0.1877,0.2126,0.2303,0.247,0.2604,0.2773,0.2899,0.3003,0.3015,0.3096,0.3067,0.3069,0.2928,0.2894,0.2882,0.2877,0.2942,0.2943,0.2944,0.2944,0,0.137,0.1396,0.1543,0.1595,0.167,0.1787,0.187,0.2087,0.2175,0.2471,0.251,0.2762,0.2878,0.2976,0.3096,0.3162,0.3109,0.3092,0.2943,0.2908,0.2894,0.2888,0.2881,0.2951,0.2951,0.295,0.295,0,0.1416,0.1532,0.1602,0.1755,0.1809,0.1856,0.2067,0.214,0.2324,0.2463,0.2537,0.275,0.2909,0.3033,0.315,0.3072,0.3106,0.3074,0.3145,0.3138,0.2899,0.2889,0.2963,0.2961,0.2958,0.2956,0.2955,0,0.1529,0.1589,0.1742,0.1773,0.185,0.1978,0.2081,0.2181,0.2353,0.2451,0.2591,0.2688,0.2843,0.2956,0.2979,0.3012,0.3093,0.2927,0.2921,0.2955,0.2946,0.2932,0.2918,0.3038,0.3038,0.3037,0.3036,0,0.1553,0.1706,0.1775,0.1821,0.1971,0.2029,0.2115,0.2246,0.2338,0.249,0.2576,0.2693,0.2795,0.2844,0.2939,0.2902,0.3059,0.2999,0.2905,0.2899,0.2922,0.291,0.3035,0.3035,0.3035,0.3035,0.3034,0,0.1637,0.1711,0.1806,0.1932,0.1967,0.2035,0.2159,0.2244,0.2373,0.245,0.2542,0.2611,0.2725,0.2703,0.2828,0.2805,0.282,0.2848,0.2851,0.2734,0.2691,0.2763,0.2875,0.2874,0.2872,0.2871,0.2869,0,0.1611,0.1724,0.1809,0.191,0.1966,0.2065,0.2142,0.2235,0.2321,0.2411,0.2475,0.2567,0.257,0.2627,0.2666,0.2735,0.2764,0.2707,0.2768,0.2769,0.267,0.275,0.275,0.2848,0.2851,0.2853,0.2854,0,0.1583,0.1745,0.1764,0.1815,0.195,0.1997,0.2099,0.2193,0.2254,0.2353,0.2428,0.2511,0.2542,0.2564,0.2591,0.2634,0.273,0.2639,0.2639,0.2672,0.2836,0.2737,0.274,0.2739,0.2741,0.2743,0.284,0,0.161,0.1691,0.1735,0.1847,0.1909,0.1982,0.2067,0.2139,0.2209,0.2259,0.2358,0.2404,0.2463,0.2489,0.25,0.258,0.2582,0.256,0.2521,0.2589,0.2621,0.2633,0.2471,0.247,0.2469,0.2468,0,0,0.1548,0.164,0.1716,0.1784,0.184,0.192,0.1981,0.2043,0.2149,0.2186,0.221,0.2322,0.2347,0.2413,0.245,0.2456,0.2483,0.2457,0.2552,0.2562,0.257,0.2605,0.2618,0.2465,0.2465,0.2464,0.2464,0,0.155,0.1627,0.1689,0.1749,0.1856,0.1901,0.1934,0.2029,0.2082,0.2166,0.2192,0.225,0.2318,0.2342,0.236,0.2436,0.2435,0.2457,0.2501,0.254,0.2551,0.2561,0.2598,0.261,0.2461,0.2461,0.2461,0,0.1522,0.1593,0.1633,0.174,0.1802,0.1864,0.189,0.1978,0.2035,0.2047,0.2144,0.2177,0.2201,0.2267,0.23,0.2278,0.2387,0.2348,0.2355,0.2349,0.2387,0.24,0.2412,0.226,0.226,0.2259,0,0,0.152,0.1591,0.1675,0.1742,0.1781,0.1857,0.1904,0.1953,0.2016,0.2051,0.2095,0.2139,0.2179,0.2209,0.224,0.2292,0.2293,0.2325,0.2335,0.2343,0.2342,0.2381,0.2394,0.2257,0.2257,0.2257,0,0,0.1513,0.162,0.1652,0.1731,0.18,0.1872,0.1925,0.1964,0.2032,0.2054,0.2076,0.2088,0.2165,0.2163,0.2137,0.2234,0.2192,0.2198,0.2243,0.2254,0.2264,0.2256,0.2117,0,0,0,0,0,0.1555,0.1603,0.1631,0.1655,0.1777,0.1853,0.187,0.1941,0.1969,0.2006,0.2055,0.2049,0.2157,0.2134,0.2141,0.2186,0.2232,0.2237,0.2241,0.231,0.2323,0.2333,0,0,0,0,0,0,0.1564,0.1591,0.163,0.1702,0.1731,0.1851,0.1869,0.1888,0.1967,0.1977,0.204,0.2049,0.2056,0.213,0.2136,0.218,0.2115,0.2234,0.2238,0.2241,0.2315,0.2325,0.2333,0,0,0,0,0,0.1572,0.1594,0.1778,0.1702,0.1727,0.1829,0.1869,0.1886,0.1954,0.1988,0.2001,0.2013,0.2054,0.2063,0.2134,0.2177,0.2111,0.2113,0.2237,0.224,0.2242,0.232,0,0,0,0,0,0,0.1578,0.1596,0.1784,0.1794,0.1711,0.1825,0.1846,0.1883,0.1961,0.1976,0.1956,0.1962,0.2052,0.206,0.2067,0.2177,0.2107,0.2109,0.2111,0.2239,0.2241,0.2243,0,0,0,0,0,0,0.1586,0.1604,0.1789,0.1796,0.1808,0.1821,0.184,0.1861,0.1959,0.1923,0.1932,0.1957,0.2038,0.2058,0.2063,0.2093,0.2104,0.2107,0.2108,0.2109,0.2241,0.2243,0,0,0,0,0,0,0.1594,0.161,0.1794,0.1802,0.1812,0.1926,0.1839,0.1956,0.1987,0.1917,0.1991,0.1993,0.2034,0.2041,0.206,0.2087,0.2092,0.2104,0.2106,0.2107,0.2108,0,0,0,0,0,0,0,0.1601,0.1483,0.1732,0.1807,0.1816,0.1889,0.1891,0.1893,0.1988,0.1989,0.1991,0.1992,0.2091,0.2093,0.2096,0.2083,0,0,0.2104,0.2105,0,0,0,0,0,0,0,0,0.1477,0.1481,0.1732,0.1735,0.1737,0.1889,0.1891,0.1893,0.1988,0.1989,0.199,0.1992,0.2091,0.2094,0.2096,0,0,0,0,0,0,0,0,0,0,0,0,0,0,0,0.1732,0.1734,0,0.189,0.1891,0.1892,0.1988,0.1989,0.199,0.1991,0.2092,0.2094,0.2095,0,0,0,0,0,0,0,0,0,0,0,0,0,0,0,0,0,0,0,0,0,0,0,0,0,0,0,0,0,0,0,0,0,0,0,0,0,0,0,0,0,0,0,0,0,0,0,0,0,0,0,0,0,0,0,0,0,0,0,0,0,0,0,0,0,0,0,0,0]}],[{"header":{"parameterUnit":"kt","parameterCategory":2,"dx":1,"dy":1,"la1":30.253999710083008,"la2":30.299108505249023,"lo1":-89.0895004272461,"lo2":-89.04439544677734,"nx":28,"ny":28,"refTime":"2022-09-30T21:00:00:Z","depth":"4","parameterNumber":3,"parameterNumberName":"V-component_of_CURRENTS"},"data":[0.0665,0.0762,0.0796,0.0907,0.0968,0.1086,0.1158,0.1187,0.1145,0.1135,0.0951,0.0864,0.0519,0.0716,0.0171,0.0101,0.0002,-0.0338,-0.0344,-0.0459,-0.0452,-0.0445,-0.0525,0,0,0,0,0,0.0633,0.0684,0.0799,0.0895,0.1013,0.1061,0.118,0.1227,0.1249,0.1195,0.1152,0.0952,0.0588,0.044,0.019,0.0127,-0.0174,-0.0176,-0.0269,-0.0454,-0.0446,-0.0527,0,0,0,0,0,0,0.0579,0.0647,0.0718,0.0825,0.0949,0.1037,0.1112,0.1138,0.1191,0.1152,0.1122,0.0898,0.0771,0.0408,0.0173,-0.0069,-0.013,-0.021,-0.0215,-0.021,-0.0238,-0.0185,-0.0142,0,0,0,0,0,0.0505,0.0533,0.0605,0.0726,0.0822,0.0947,0.1036,0.1095,0.1113,0.1135,0.1047,0.0856,0.0666,0.0363,0.0119,-0.0112,-0.028,-0.0344,-0.0341,-0.0422,-0.0398,-0.0413,-0.0411,-0.0415,-0.0414,-0.0413,-0.0413,0,0.0413,0.0454,0.0551,0.0617,0.0644,0.0759,0.0836,0.0874,0.0929,0.0935,0.0955,0.0826,0.069,0.0373,0.0104,-0.0192,-0.0271,-0.0322,-0.0408,-0.0384,-0.0402,-0.0402,-0.0402,-0.0406,-0.0406,-0.0407,-0.0408,0,0.0373,0.0372,0.0453,0.0499,0.0526,0.0604,0.0704,0.0774,0.0773,0.0841,0.0839,0.0705,0.0526,0.0297,0.0092,-0.0083,-0.0255,-0.0323,-0.0208,-0.0224,-0.0388,-0.0391,-0.0395,-0.0397,-0.04,-0.0401,-0.0403,0,0.0303,0.0345,0.0366,0.0396,0.0489,0.0463,0.0564,0.0553,0.0581,0.0631,0.0507,0.0501,0.0272,0.0156,-0.0017,-0.0208,-0.0163,-0.0358,-0.0378,-0.0324,-0.0326,-0.0333,-0.0336,-0.0313,-0.0314,-0.0314,-0.0315,0,0.0264,0.0273,0.0319,0.0323,0.0339,0.036,0.0375,0.036,0.0398,0.0378,0.0407,0.0271,0.0237,0.0099,-0.0104,-0.0123,-0.0222,-0.0257,-0.0375,-0.0378,-0.0337,-0.0339,-0.0316,-0.0316,-0.0316,-0.0316,-0.0316,0,0.0196,0.0214,0.0241,0.0285,0.0287,0.0285,0.0315,0.0304,0.0273,0.0255,0.0192,0.0124,0.0028,-0.0062,-0.02,-0.0201,-0.0268,-0.0328,-0.0327,-0.0406,-0.044,-0.0313,-0.0307,-0.0307,-0.0308,-0.0308,-0.0308,0,0.0196,0.0202,0.017,0.0189,0.0203,0.0162,0.0152,0.0122,0.0092,0.0094,-0.0013,-0.0036,-0.0169,-0.0176,-0.025,-0.0323,-0.0345,-0.0363,-0.0367,-0.0366,-0.042,-0.0435,-0.0393,-0.0314,-0.0313,-0.0313,-0.0312,0,0.0187,0.0161,0.0158,0.018,0.0121,0.0115,0.0076,0.005,0.007,-0.003,-0.001,-0.016,-0.0191,-0.0231,-0.0301,-0.0343,-0.035,-0.0373,-0.0374,-0.032,-0.0351,-0.0429,-0.0433,-0.0392,-0.0392,-0.0392,-0.0316,0,0.0197,0.0181,0.0164,0.0128,0.0105,0.0085,0.0036,0.001,-0.0023,-0.0055,-0.0113,-0.0205,-0.0255,-0.0305,-0.035,-0.0388,-0.037,-0.041,-0.0399,-0.0409,-0.0373,-0.037,-0.0413,-0.0413,-0.0413,-0.0414,0,0,0.0217,0.0187,0.0139,0.0117,0.0105,0.0051,0.0043,-0.0,-0.0069,-0.0076,-0.0108,-0.0216,-0.0283,-0.0337,-0.0362,-0.0397,-0.0386,-0.0379,-0.0412,-0.0411,-0.0411,-0.0378,-0.0374,-0.0414,-0.0414,-0.0415,-0.0415,0,0.0216,0.0175,0.0154,0.0125,0.0076,0.0046,0.0037,-0.0021,-0.0048,-0.0096,-0.0144,-0.0202,-0.0279,-0.0328,-0.0361,-0.0396,-0.0395,-0.0418,-0.039,-0.0414,-0.0413,-0.0413,-0.038,-0.0376,-0.0415,-0.0415,-0.0415,0,0.0228,0.0189,0.017,0.0108,0.0072,0.0046,0.0017,-0.0024,-0.0045,-0.0097,-0.0146,-0.0199,-0.026,-0.0316,-0.0345,-0.0342,-0.0389,-0.0399,-0.0398,-0.0379,-0.0403,-0.0403,-0.0402,-0.0402,-0.0402,-0.0402,0,0,0.023,0.0199,0.0142,0.0103,0.0084,0.0035,0.0008,-0.0019,-0.0069,-0.0091,-0.0138,-0.0192,-0.0246,-0.0275,-0.0326,-0.0372,-0.0366,-0.0395,-0.0395,-0.0396,-0.0377,-0.0401,-0.0401,-0.0401,-0.0401,-0.04,0,0,0.0227,0.0165,0.0151,0.0102,0.0061,0.0,-0.0024,-0.0046,-0.0094,-0.01,-0.0151,-0.0167,-0.0227,-0.0255,-0.0235,-0.0325,-0.0326,-0.0331,-0.0299,-0.03,-0.0301,-0.0264,-0.0258,0,0,0,0,0,0.0204,0.0176,0.0164,0.0148,0.0063,0.0011,-0.0,-0.0045,-0.0054,-0.007,-0.0118,-0.0137,-0.0259,-0.0242,-0.0256,-0.0275,-0.0386,-0.0389,-0.0391,-0.0362,-0.0363,-0.0364,0,0,0,0,0,0,0.0198,0.018,0.0164,0.0103,0.0083,0.0012,-0.0007,-0.002,-0.0054,-0.0059,-0.0127,-0.0139,-0.0174,-0.0237,-0.0249,-0.0267,-0.0254,-0.0387,-0.0389,-0.0391,-0.0362,-0.0363,-0.0364,0,0,0,0,0,0.0192,0.0178,0.0051,0.0103,0.0086,0.0021,-0.0007,-0.0018,-0.0045,-0.0108,-0.012,-0.0079,-0.0173,-0.0186,-0.0245,-0.0261,-0.0246,-0.025,-0.0389,-0.039,-0.0392,-0.0362,0,0,0,0,0,0,0.0188,0.0172,0.0047,0.004,0.0103,0.0024,0.001,-0.0016,-0.0093,-0.0106,-0.0062,-0.0064,-0.0172,-0.0183,-0.0193,-0.0257,-0.024,-0.0244,-0.0247,-0.039,-0.0391,-0.0392,0,0,0,0,0,0,0.0179,0.0167,0.0043,0.0045,0.0038,0.0027,0.0014,-0.0029,-0.0094,-0.0042,-0.0047,-0.0062,-0.0162,-0.018,-0.0188,-0.0254,-0.0235,-0.0239,-0.0242,-0.0244,-0.0391,-0.0392,0,0,0,0,0,0,0.0173,0.0162,0.0047,0.0042,0.0036,-0.0043,-0.0013,-0.01,-0.0085,-0.0038,-0.0086,-0.0086,-0.0159,-0.0168,-0.0185,-0.0247,-0.0252,-0.0235,-0.0238,-0.024,-0.0241,0,0,0,0,0,0,0,0.0168,0.0251,0.0085,0.0039,0.0033,-0.0024,-0.0026,-0.0027,-0.0085,-0.0085,-0.0086,-0.0086,-0.0211,-0.0215,-0.022,-0.0241,0,0,-0.0234,-0.0236,0,0,0,0,0,0,0,0,0.0254,0.0252,0.0085,0.0083,0.0082,-0.0024,-0.0026,-0.0027,-0.0085,-0.0085,-0.0086,-0.0086,-0.0212,-0.0216,-0.022,0,0,0,0,0,0,0,0,0,0,0,0,0,0,0,0.0085,0.0083,0,-0.0024,-0.0026,-0.0027,-0.0085,-0.0085,-0.0086,-0.0086,-0.0213,-0.0216,-0.0219,0,0,0,0,0,0,0,0,0,0,0,0,0,0,0,0,0,0,0,0,0,0,0,0,0,0,0,0,0,0,0,0,0,0,0,0,0,0,0,0,0,0,0,0,0,0,0,0,0,0,0,0,0,0,0,0,0,0,0,0,0,0,0,0,0,0,0,0,0]}]]]